TITAN 3C TRANSTAGE DEB, 33512

Orbit data source: Space-Track

TITAN 3C TRANSTAGE DEB, 33512 is space debris in GEO originally from a launch on Thu, 26 Sep 1968 UTC launched from the Air Force Eastern Test Range (AFETR). Debris objects in space refer to the collection of defunct objects orbiting the Earth. Examples of debris include non-operational satellites, rocket bodies, and fragments generated from explosions, collisions, or faulty payload assembly.

Loading next visibility...
Identifier
33512, 1968-081N
Orbit
GEO
Country
Flag of USUS
Related business
Manufacturer
Unknown
Mission
Spacecraft
Bus & Motor
Unknown
Mass
Unknown
Launch date (UTC)
1968-09-26 (58 years ago)
Launch vehicle
Unknown
Launch site
Air Force Eastern Test Range (AFETR)
Object type
Payload
Rocket body
Debris
Shape & HBR
Unknown shape, 1.1 m
Radar Cross Section
Medium (>0.1 m² and <1 m²)

Expand to show TLE details & history
Last TLE update: 2 days ago

TLE from 2 days ago
0 TITAN 3C TRANSTAGE DEB
1 33512U 68081N   26256.58992257  .00000049  00000-0  00000-0 0  9998
2 33512   2.2070  46.9171 0115973 300.0871  59.2719  1.00903734 74528
Epoch: 2026-09-13T14:09Z
TLE epoch observation values (Epoch: 2026-09-13T14:09:29.310Z)
Latitude
-0.00002°
Longitude
-157.52879°
Altitude
35,363.547 km
Speed
3.099 km/s
True Right ascension
03h 09m 42s
True Declination
0° 00' 00"
Sunlit
Object was in daylight at epoch
Visualization orbit readout
Latitude
Unknown
Longitude
Unknown
Altitude
Unknown
Speed
Unknown
Apparent Right ascension
Unknown
Apparent Declination
Unknown
Sunlit
N/A
Visualization observer readout
Local Sidereal Time
04:10:32
Azimuth
Unknown
Elevation
Unknown
Doppler factor
Unknown
Orbital elements
Apogee altitude
36,098.4 km
Perigee altitude
35,124.469 km
Semi-major axis
41,989.571 km
Eccentricity
0.0116
Inclination
2.207°
RAAN
46.9171°
Arg. of periapsis
300.0871°
True anomaly
60.42272°
Mean anomaly
59.2719°
Eccentric anomaly
59.84646°
Mean motion
0.25225 °/min
Orbital period
1,427.16 mins
BSTAR
0
Loading maneuver chart data...
Computing Atmospheric mass density...

Documentation

Showing up to 5 results
|